| time (UTC) | temp F | wind direction | speed knots | gust knots | rain 1hr in | rain 24hr in | rain mn in | humidity % | barometer mb |
| 20260905103517 | 67 | 68 | 3.5 | 4.3 | 0.00 | 0.00 | 0.00 | 98 | 1015.1 |
| 20260905102518 | 67 | 45 | 3.5 | 4.3 | 0.00 | 0.00 | 0.00 | 98 | 1015.1 |
| 20260905101517 | 67 | 68 | 2.6 | 4.3 | 0.00 | 0.00 | 0.00 | 97 | 1015.0 |
| 20260905100537 | 67 | 68 | 3.5 | 5.2 | 0.00 | 0.00 | 0.00 | 97 | 1015.0 |
| 20260905095517 | 67 | 68 | 1.7 | 2.6 | 0.00 | 0.00 | 0.00 | 97 | 1015.0 |
| 20260905094517 | 67 | 68 | 1.7 | 2.6 | 0.00 | 0.00 | 0.00 | 97 | 1015.0 |
| 20260905093542 | 67 | 0.0 | 0.0 | 0.00 | 0.00 | 0.00 | 97 | 1015.2 | |
| 20260905092537 | 67 | 68 | 0.9 | 2.6 | 0.00 | 0.00 | 0.00 | 97 | 1015.1 |
| 20260905091518 | 67 | 68 | 1.7 | 3.5 | 0.00 | 0.00 | 0.00 | 97 | 1014.8 |
| 20260905090517 | 68 | 68 | 2.6 | 5.2 | 0.00 | 0.00 | 0.00 | 97 | 1014.8 |
| 20260905085517 | 68 | 68 | 2.6 | 4.3 | 0.00 | 0.00 | 0.00 | 97 | 1014.4 |
| 20260905084516 | 68 | 68 | 2.6 | 4.3 | 0.00 | 0.00 | 0.00 | 97 | 1014.6 |
| 20260905083517 | 68 | 68 | 3.5 | 6.1 | 0.00 | 0.00 | 0.00 | 96 | 1014.8 |
| 20260905082517 | 69 | 68 | 3.5 | 5.2 | 0.00 | 0.00 | 0.00 | 96 | 1015.0 |
| 20260905081517 | 69 | 68 | 2.6 | 5.2 | 0.00 | 0.00 | 0.00 | 96 | 1015.3 |
| 20260905080516 | 69 | 68 | 3.5 | 5.2 | 0.00 | 0.00 | 0.00 | 96 | 1015.2 |
| 20260905075537 | 69 | 45 | 3.5 | 5.2 | 0.00 | 0.00 | 0.00 | 96 | 1015.2 |
| 20260905074517 | 69 | 45 | 4.3 | 5.2 | 0.00 | 0.00 | 0.00 | 96 | 1015.1 |
| 20260905073537 | 70 | 45 | 4.3 | 6.1 | 0.00 | 0.00 | 0.00 | 96 | 1015.3 |
| 20260905072517 | 70 | 68 | 4.3 | 7.0 | 0.00 | 0.00 | 0.00 | 96 | 1015.3 |
| 20260905071516 | 70 | 68 | 4.3 | 7.0 | 0.00 | 0.00 | 0.00 | 96 | 1015.1 |
| 20260905070517 | 70 | 68 | 4.3 | 7.0 | 0.00 | 0.00 | 0.00 | 95 | 1015.2 |
| 20260905065517 | 70 | 68 | 4.3 | 7.8 | 0.00 | 0.00 | 0.00 | 96 | 1015.2 |
| 20260905064516 | 70 | 68 | 4.3 | 6.1 | 0.00 | 0.00 | 0.00 | 95 | 1015.1 |
| 20260905063517 | 71 | 68 | 2.6 | 4.3 | 0.00 | 0.00 | 0.00 | 95 | 1015.2 |
| 20260905062517 | 71 | 68 | 4.3 | 7.0 | 0.00 | 0.00 | 0.00 | 95 | 1015.2 |
| 20260905061521 | 71 | 68 | 3.5 | 5.2 | 0.00 | 0.00 | 0.00 | 95 | 1015.1 |
| 20260905060517 | 71 | 45 | 3.5 | 5.2 | 0.00 | 0.00 | 0.00 | 95 | 1015.1 |
| 20260905055516 | 71 | 68 | 4.3 | 6.1 | 0.00 | 0.00 | 0.00 | 95 | 1015.1 |
| 20260905054516 | 71 | 68 | 3.5 | 5.2 | 0.00 | 0.00 | 0.00 | 95 | 1015.0 |
| 20260905053517 | 71 | 68 | 2.6 | 3.5 | 0.00 | 0.00 | 0.00 | 95 | 1014.9 |
| 20260905052516 | 71 | 68 | 2.6 | 3.5 | 0.00 | 0.00 | 0.00 | 95 | 1014.9 |
| 20260905051557 | 72 | 68 | 1.7 | 3.5 | 0.00 | 0.00 | 0.00 | 95 | 1014.7 |
| 20260905050516 | 72 | 68 | 2.6 | 6.1 | 0.00 | 0.00 | 0.00 | 95 | 1014.6 |
| 20260905045517 | 72 | 90 | 2.6 | 4.3 | 0.00 | 0.00 | 0.00 | 95 | 1014.6 |
| 20260905044517 | 72 | 68 | 2.6 | 4.3 | 0.00 | 0.00 | 0.00 | 95 | 1014.7 |
| 20260905043538 | 72 | 68 | 2.6 | 3.5 | 0.00 | 0.00 | 0.00 | 95 | 1014.6 |
| 20260905042517 | 72 | 68 | 0.9 | 2.6 | 0.00 | 0.00 | 0.00 | 95 | 1014.7 |
| 20260905041517 | 72 | 68 | 1.7 | 3.5 | 0.00 | 0.00 | 0.00 | 95 | 1014.8 |
| 20260905040518 | 72 | 68 | 1.7 | 3.5 | 0.00 | 0.00 | 0.00 | 95 | 1014.8 |
| 20260905035517 | 73 | 68 | 0.9 | 1.7 | 0.00 | 0.00 | 0.00 | 95 | 1014.7 |
| 20260905034517 | 73 | 68 | 0.9 | 1.7 | 0.00 | 0.00 | 0.00 | 95 | 1014.7 |
| 20260905033518 | 73 | 68 | 1.7 | 3.5 | 0.00 | 0.00 | 0.00 | 95 | 1014.6 |
| 20260905032517 | 73 | 68 | 2.6 | 4.3 | 0.00 | 0.00 | 0.00 | 95 | 1014.4 |
| 20260905031517 | 73 | 68 | 1.7 | 3.5 | 0.00 | 0.00 | 0.00 | 95 | 1014.4 |
| 20260905030518 | 73 | 68 | 1.7 | 2.6 | 0.00 | 0.00 | 0.00 | 94 | 1014.4 |
| 20260905025658 | 73 | 68 | 1.7 | 3.5 | 0.00 | 0.00 | 0.00 | 94 | 1014.3 |
| 20260905024518 | 74 | 68 | 2.6 | 5.2 | 0.00 | 0.00 | 0.00 | 94 | 1013.9 |
| 20260905023517 | 74 | 68 | 3.5 | 4.3 | 0.00 | 0.00 | 0.00 | 93 | 1014.0 |
| 20260905022518 | 74 | 45 | 1.7 | 4.3 | 0.00 | 0.00 | 0.00 | 93 | 1013.9 |
| 20260905021517 | 75 | 45 | 3.5 | 5.2 | 0.00 | 0.00 | 0.00 | 92 | 1013.8 |
| 20260905020518 | 75 | 45 | 4.3 | 6.1 | 0.00 | 0.00 | 0.00 | 93 | 1013.5 |
| 20260905015517 | 75 | 45 | 4.3 | 6.1 | 0.00 | 0.00 | 0.00 | 93 | 1013.4 |
| 20260905014517 | 76 | 45 | 4.3 | 6.1 | 0.00 | 0.00 | 0.00 | 93 | 1013.4 |
| 20260905013518 | 76 | 23 | 4.3 | 5.2 | 0.00 | 0.00 | 0.00 | 93 | 1013.3 |
| 20260905012517 | 76 | 23 | 3.5 | 5.2 | 0.00 | 0.00 | 0.00 | 93 | 1013.2 |
| 20260905011518 | 77 | 23 | 3.5 | 5.2 | 0.00 | 0.00 | 0.00 | 93 | 1013.2 |
| 20260905010517 | 77 | 23 | 3.5 | 5.2 | 0.00 | 0.00 | 0.00 | 92 | 1013.1 |
| 20260905005517 | 78 | 45 | 3.5 | 5.2 | 0.00 | 0.00 | 0.00 | 91 | 1013.0 |
| 20260905004537 | 79 | 45 | 4.3 | 5.2 | 0.00 | 0.00 | 0.00 | 90 | 1013.0 |
| 20260905003517 | 80 | 45 | 3.5 | 4.3 | 0.00 | 0.00 | 0.00 | 90 | 1013.0 |
| 20260905002517 | 80 | 45 | 3.5 | 4.3 | 0.00 | 0.00 | 0.00 | 89 | 1013.1 |
| 20260905001516 | 81 | 45 | 4.3 | 6.1 | 0.00 | 0.00 | 0.00 | 88 | 1012.9 |
| 20260905000537 | 82 | 45 | 3.5 | 5.2 | 0.00 | 0.00 | 0.00 | 87 | 1013.0 |
| 20260904235516 | 83 | 45 | 4.3 | 7.8 | 0.00 | 0.00 | 0.00 | 86 | 1013.0 |
| 20260904234516 | 84 | 45 | 4.3 | 7.8 | 0.00 | 0.00 | 0.00 | 85 | 1013.1 |
| 20260904233516 | 84 | 45 | 4.3 | 7.0 | 0.00 | 0.00 | 0.00 | 84 | 1013.2 |
| 20260904232516 | 84 | 45 | 5.2 | 7.0 | 0.00 | 0.00 | 0.00 | 84 | 1013.1 |
| 20260904231517 | 85 | 45 | 4.3 | 5.2 | 0.00 | 0.00 | 0.00 | 84 | 1013.2 |
| 20260904230516 | 85 | 45 | 5.2 | 8.7 | 0.00 | 0.00 | 0.00 | 83 | 1013.1 |
| 20260904225536 | 86 | 45 | 5.2 | 8.7 | 0.00 | 0.00 | 0.00 | 83 | 1013.1 |
| 20260904224516 | 86 | 45 | 4.3 | 7.8 | 0.00 | 0.00 | 0.00 | 83 | 1013.0 |
| 20260904223516 | 86 | 45 | 5.2 | 7.8 | 0.00 | 0.00 | 0.00 | 82 | 1012.8 |
| 20260904222517 | 86 | 45 | 5.2 | 7.8 | 0.00 | 0.00 | 0.00 | 82 | 1012.8 |
| 20260904221537 | 86 | 45 | 5.2 | 7.8 | 0.00 | 0.00 | 0.00 | 81 | 1012.8 |
| 20260904220516 | 86 | 45 | 5.2 | 7.8 | 0.00 | 0.00 | 0.00 | 81 | 1012.8 |
| 20260904215516 | 86 | 45 | 5.2 | 7.8 | 0.00 | 0.00 | 0.00 | 81 | 1012.8 |
| 20260904214516 | 86 | 23 | 6.1 | 8.7 | 0.00 | 0.00 | 0.00 | 80 | 1012.8 |
| 20260904213517 | 86 | 23 | 7.0 | 9.6 | 0.00 | 0.00 | 0.00 | 80 | 1012.9 |
| 20260904212517 | 86 | 23 | 7.0 | 9.6 | 0.00 | 0.00 | 0.00 | 80 | 1012.8 |
| 20260904211516 | 86 | 23 | 7.0 | 9.6 | 0.00 | 0.00 | 0.00 | 80 | 1012.7 |
| 20260904210517 | 85 | 23 | 7.0 | 8.7 | 0.00 | 0.00 | 0.00 | 80 | 1012.8 |
| 20260904205516 | 86 | 23 | 7.0 | 8.7 | 0.00 | 0.00 | 0.00 | 80 | 1012.8 |
| 20260904204536 | 86 | 45 | 7.0 | 9.6 | 0.00 | 0.00 | 0.00 | 81 | 1012.9 |
| 20260904203516 | 86 | 0 | 7.8 | 11.3 | 0.00 | 0.00 | 0.00 | 80 | 1012.8 |
| 20260904202517 | 87 | 23 | 8.7 | 12.2 | 0.00 | 0.00 | 0.00 | 79 | 1012.8 |
| 20260904201517 | 88 | 23 | 7.8 | 11.3 | 0.00 | 0.00 | 0.00 | 79 | 1012.8 |
| 20260904200516 | 87 | 0 | 8.7 | 12.2 | 0.00 | 0.00 | 0.00 | 79 | 1012.8 |
| 20260904195556 | 88 | 0 | 8.7 | 12.2 | 0.00 | 0.00 | 0.00 | 78 | 1012.8 |
| 20260904194517 | 88 | 23 | 7.8 | 11.3 | 0.00 | 0.00 | 0.00 | 78 | 1012.7 |
| 20260904193516 | 88 | 23 | 7.8 | 11.3 | 0.00 | 0.00 | 0.00 | 78 | 1012.6 |
| 20260904192516 | 89 | 45 | 7.8 | 12.2 | 0.00 | 0.00 | 0.00 | 79 | 1012.6 |
| 20260904191516 | 89 | 23 | 7.8 | 9.6 | 0.00 | 0.00 | 0.00 | 79 | 1012.6 |
| 20260904190517 | 89 | 68 | 4.3 | 10.4 | 0.00 | 0.00 | 0.00 | 77 | 1012.6 |
| 20260904185536 | 89 | 45 | 6.1 | 9.6 | 0.00 | 0.00 | 0.00 | 74 | 1012.6 |
| 20260904184516 | 89 | 23 | 6.1 | 8.7 | 0.00 | 0.00 | 0.00 | 75 | 1012.6 |
| 20260904183516 | 88 | 23 | 4.3 | 7.0 | 0.00 | 0.00 | 0.00 | 74 | 1012.8 |
| 20260904182516 | 88 | 45 | 6.1 | 10.4 | 0.00 | 0.00 | 0.00 | 74 | 1012.9 |
| 20260904181516 | 88 | 23 | 5.2 | 10.4 | 0.00 | 0.00 | 0.00 | 73 | 1012.9 |
| 20260904180516 | 88 | 23 | 5.2 | 8.7 | 0.00 | 0.00 | 0.00 | 73 | 1012.8 |
| 20260904175517 | 88 | 0 | 4.3 | 7.8 | 0.00 | 0.00 | 0.00 | 77 | 1012.7 |
| 20260904174537 | 88 | 338 | 5.2 | 8.7 | 0.00 | 0.00 | 0.00 | 75 | 1012.8 |
| 20260904173516 | 87 | 45 | 3.5 | 7.0 | 0.00 | 0.00 | 0.00 | 78 | 1012.8 |
| 20260904172516 | 86 | 0 | 3.5 | 7.8 | 0.00 | 0.00 | 0.00 | 77 | 1012.8 |
| 20260904171536 | 86 | 315 | 4.3 | 8.7 | 0.00 | 0.00 | 0.00 | 78 | 1012.7 |
| 20260904170516 | 85 | 45 | 2.6 | 5.2 | 0.00 | 0.00 | 0.00 | 81 | 1012.5 |
| 20260904165515 | 85 | 23 | 2.6 | 5.2 | 0.00 | 0.00 | 0.00 | 82 | 1012.6 |
| 20260904164516 | 84 | 0 | 1.7 | 2.6 | 0.00 | 0.00 | 0.00 | 82 | 1012.5 |
| 20260904163541 | 84 | 23 | 2.6 | 4.3 | 0.00 | 0.00 | 0.00 | 83 | 1012.4 |
| 20260904162516 | 84 | 315 | 3.5 | 8.7 | 0.00 | 0.00 | 0.00 | 84 | 1012.4 |
| 20260904161516 | 83 | 68 | 1.7 | 4.3 | 0.00 | 0.00 | 0.00 | 85 | 1012.3 |
| 20260904160516 | 82 | 68 | 1.7 | 4.3 | 0.00 | 0.00 | 0.00 | 84 | 1012.2 |
| 20260904155516 | 82 | 45 | 2.6 | 4.3 | 0.00 | 0.00 | 0.00 | 85 | 1012.1 |
| 20260904154515 | 82 | 90 | 1.7 | 2.6 | 0.00 | 0.00 | 0.00 | 87 | 1012.0 |
| 20260904153520 | 81 | 338 | 1.7 | 3.5 | 0.00 | 0.00 | 0.00 | 85 | 1012.1 |
| 20260904152515 | 81 | 293 | 0.9 | 3.5 | 0.00 | 0.00 | 0.00 | 88 | 1012.0 |
| 20260904151516 | 80 | 293 | 1.7 | 3.5 | 0.00 | 0.00 | 0.00 | 88 | 1011.9 |
| 20260904150516 | 80 | 225 | 0.9 | 2.6 | 0.00 | 0.00 | 0.00 | 89 | 1011.9 |
| 20260904145515 | 79 | 225 | 2.6 | 3.5 | 0.00 | 0.00 | 0.00 | 89 | 1011.9 |
| 20260904144515 | 79 | 270 | 0.9 | 4.3 | 0.00 | 0.00 | 0.00 | 90 | 1011.9 |
| 20260904143536 | 78 | 270 | 0.9 | 3.5 | 0.00 | 0.00 | 0.00 | 90 | 1011.8 |
| 20260904142516 | 78 | 270 | 0.9 | 5.2 | 0.00 | 0.00 | 0.00 | 91 | 1011.8 |
| 20260904141515 | 77 | 248 | 1.7 | 3.5 | 0.00 | 0.00 | 0.00 | 93 | 1011.6 |
| 20260904140516 | 77 | 248 | 0.9 | 2.6 | 0.00 | 0.00 | 0.00 | 94 | 1011.6 |
| 20260904135515 | 76 | 203 | 2.6 | 5.2 | 0.00 | 0.00 | 0.00 | 96 | 1011.6 |
| 20260904134517 | 75 | 203 | 2.6 | 3.5 | 0.00 | 0.00 | 0.00 | 96 | 1011.5 |
| 20260904133517 | 74 | 203 | 1.7 | 3.5 | 0.00 | 0.00 | 0.00 | 97 | 1011.5 |
| 20260904132517 | 73 | 203 | 2.6 | 3.5 | 0.00 | 0.00 | 0.00 | 98 | 1011.5 |
| 20260904131517 | 72 | 203 | 3.5 | 4.3 | 0.00 | 0.00 | 0.00 | 98 | 1011.4 |
| 20260904130537 | 72 | 180 | 1.7 | 3.5 | 0.00 | 0.00 | 0.00 | 98 | 1011.5 |
| 20260904125517 | 71 | 180 | 2.6 | 4.3 | 0.00 | 0.00 | 0.00 | 98 | 1011.4 |
| 20260904124517 | 71 | 180 | 2.6 | 4.3 | 0.00 | 0.00 | 0.00 | 98 | 1011.3 |
| 20260904123518 | 70 | 180 | 1.7 | 3.5 | 0.00 | 0.00 | 0.00 | 98 | 1011.3 |
| 20260904122517 | 70 | 0.0 | 0.0 | 0.00 | 0.00 | 0.00 | 98 | 1011.2 | |
| 20260904121517 | 70 | 0.0 | 0.0 | 0.00 | 0.00 | 0.00 | 98 | 1011.1 | |
| 20260904120518 | 70 | 0.0 | 1.7 | 0.00 | 0.00 | 0.00 | 98 | 1011.1 | |
| 20260904115517 | 70 | 0.0 | 0.0 | 0.00 | 0.00 | 0.00 | 97 | 1010.9 | |
| 20260904114517 | 70 | 0.0 | 0.0 | 0.00 | 0.00 | 0.00 | 97 | 1010.8 | |
| 20260904113517 | 70 | 0.0 | 0.0 | 0.00 | 0.00 | 0.00 | 97 | 1010.7 | |
| 20260904112517 | 70 | 0.0 | 0.0 | 0.00 | 0.00 | 0.00 | 97 | 1010.6 | |
| 20260904111517 | 70 | 0.0 | 0.9 | 0.00 | 0.00 | 0.00 | 97 | 1010.5 | |
| 20260904110518 | 71 | 203 | 1.7 | 2.6 | 0.00 | 0.00 | 0.00 | 97 | 1010.5 |
| 20260904105517 | 71 | 203 | 1.7 | 3.5 | 0.00 | 0.00 | 0.00 | 97 | 1010.4 |
| 20260904104517 | 72 | 203 | 2.6 | 3.5 | 0.00 | 0.00 | 0.00 | 97 | 1010.4 |